Terminal Aerodrome Forecast
Issued by NWS

Home | Current Version | Previous Version | Text Only | Print | Product List | Glossary On
Versions: 1 2 3 4 5 6 7 8 9 10 11 12 13 14 15
000
FTUS45 KMSO 070539
TAFSMN
TAF
KSMN 070539Z 0706/0806 VRB06KT P6SM SKC
     FM072100 35010KT P6SM VCSH SCT070 BKN100
     FM080300 VRB05KT P6SM FEW050
      AMD LTD TO CLD VIS AND WIND=

USA.gov is the U.S. government's official web portal to all federal, state and local government web resources and services.